Wind_Speed
15 15 16 16 17 18 18 19 20 21 22 22 22 22 21 21 22 24 26 27 29 30 32 33 35 36 37 37 38 39 37 36 37 36 34 31 27 24 24 23 25 27 25 25
12 13 13 14 15 15 16 17 19 21 21 22 22 21 21 21 22 24 26 28 31 33 35 37 38 38 39 39 38 38 37 35 35 34 32 28 25 23 21 20 21 23 23 24
9 10 11 12 12 13 13 14 16 17 19 21 23 22 22 23 25 27 29 31 33 35 37 38 39 39 38 38 37 37 37 35 34 32 31 28 26 24 22 22 22 22 24 25
7 8 9 10 11 11 11 12 13 14 16 18 20 22 22 24 27 28 30 32 34 35 36 36 35 35 36 36 37 37 36 36 36 34 32 30 28 27 26 26 26 26 26 26
5 6 7 8 9 9 10 11 12 13 14 15 17 19 21 23 24 25 27 27 29 29 30 32 31 32 33 34 35 36 37 37 37 37 36 34 32 31 30 29 29 28 29 29
4 4 5 5 7 7 8 9 10 12 12 13 14 16 17 19 20 22 24 24 24 24 26 27 28 31 33 34 35 36 38 39 40 40 39 39 38 37 36 35 34 34 35 35
2 3 5 6 7 7 9 9 10 10 10 10 12 14 15 17 18 20 22 22 23 25 28 30 32 33 35 36 38 39 41 42 42 42 42 42 42 42 42 42 42 42 42 42
1 2 4 6 7 9 10 10 12 12 11 11 12 14 15 17 19 21 22 24 26 29 32 34 34 36 37 38 40 41 42 44 44 45 46 46 46 47 47 47 47 47 48 48
3 3 5 6 8 9 10 11 13 14 13 13 14 15 17 18 21 22 25 28 30 32 34 36 37 38 39 41 42 43 45 46 47 48 48 49 50 51 51 52 52 53 53 53
5 5 6 7 8 9 10 11 13 14 16 16 16 17 20 21 24 27 30 32 33 35 36 38 39 41 43 44 45 46 47 48 48 49 50 51 53 54 55 56 57 57 58 58
6 7 8 9 9 10 11 13 14 15 16 18 19 21 23 25 28 31 33 35 36 38 39 41 43 45 46 47 48 49 50 50 50 51 51 52 53 54 54 55 56 57 59 60
7 9 10 10 10 11 13 14 15 17 18 19 22 24 26 29 31 33 35 37 39 41 43 45 47 48 50 51 52 53 54 55 55 55 54 53 53 53 52 51 51 52 53 56
8 9 10 11 12 13 14 15 17 18 20 22 24 26 29 31 33 35 37 39 42 44 47 49 50 52 54 55 56 57 57 58 58 58 57 55 54 52 50 49 48 47 47 48
9 10 11 12 13 14 15 17 19 20 21 24 26 28 30 32 35 37 40 42 45 48 50 52 53 55 56 57 58 59 60 61 61 61 59 57 54 52 49 47 45 43 42 41
10 11 12 13 14 15 16 18 19 21 23 26 28 30 32 34 37 40 43 45 48 50 52 54 55 56 57 58 60 60 61 61 61 60 59 57 54 51 49 46 44 42 40 38
12 13 14 15 16 17 18 20 22 23 25 27 29 31 34 36 39 42 45 48 50 52 53 54 56 56 58 59 60 60 60 60 60 59 58 56 54 52 49 46 44 42 40 38
12 14 15 16 17 18 19 21 23 24 26 29 31 34 36 38 40 45 48 50 52 54 55 56 56 57 58 59 60 60 60 59 59 57 56 55 53 51 49 46 44 43 41 40
12 14 16 17 18 19 21 23 24 26 28 31 33 36 38 40 42 46 50 52 54 55 56 56 56 57 59 60 60 59 58 58 57 57 55 53 51 50 48 47 44 42 42 40
13 15 17 18 20 21 23 26 28 29 30 33 35 38 40 42 43 45 50 52 54 55 56 56 57 58 59 59 59 57 57 57 57 56 54 52 50 48 47 45 44 42 41 40
14 16 18 20 22 25 26 28 30 32 33 35 37 40 42 46 48 48 51 53 53 55 56 57 57 58 59 58 57 57 57 57 56 54 52 50 48 46 44 42 41 40 39 38
17 18 20 21 23 25 27 29 31 34 36 37 39 42 44 47 50 53 55 55 55 56 57 57 58 58 57 57 57 57 57 56 54 51 48 46 44 42 40 38 37 37 37 37
19 20 21 22 24 26 28 30 32 33 35 38 40 43 45 48 50 53 55 55 55 56 56 57 57 57 56 57 57 57 55 53 50 48 45 42 38 36 35 34 33 33 33 34
19 21 22 24 25 27 28 30 32 34 36 38 41 44 47 49 51 53 55 55 55 55 56 56 56 56 56 56 56 55 53 50 47 44 41 38 35 33 32 30 29 29 30 31
20 21 23 24 25 27 28 30 33 35 37 39 42 46 48 50 52 54 55 55 55 55 55 55 55 55 54 54 53 53 52 48 45 42 39 36 33 30 28 25 25 25 25 26
21 22 23 24 25 27 29 31 33 36 38 40 44 47 49 51 52 54 55 55 54 55 54 54 55 54 53 53 52 53 51 47 44 41 39 34 31 27 23 21 20 19 20 20
22 22 23 25 26 28 30 32 34 36 38 41 44 47 49 52 53 54 55 54 54 54 53 53 53 53 52 52 52 52 50 47 43 40 37 33 28 24 20 18 15 14 14 16
Wind_Direction
250 250 254 257 258 257 257 256 255 254 254 257 258 261 262 260 258 262 266 270 274 279 284 287 290 292 293 293 294 296 297 301 302 304 308 302 293 279 272 264 258 258 260 261
247 251 257 260 260 260 259 259 258 255 257 258 259 261 262 263 264 267 270 274 278 281 284 287 288 289 290 291 293 298 301 301 304 307 311 306 296 289 286 274 270 272 266 266
244 251 258 263 265 266 265 267 267 268 267 266 265 267 269 271 273 276 277 280 282 283 286 285 287 288 288 290 292 296 299 302 305 307 309 306 303 298 294 287 280 275 268 269
262 260 261 266 268 272 275 278 278 280 280 278 273 274 276 279 281 283 284 284 286 287 287 288 289 290 290 292 293 295 297 298 300 302 303 302 301 299 294 289 284 277 274 271
267 263 262 269 274 282 287 287 288 289 288 286 284 284 285 286 285 287 291 292 293 291 290 292 292 294 294 294 294 295 296 297 298 298 297 297 295 291 288 285 282 278 276 272
274 275 274 281 287 290 294 300 303 302 299 296 294 293 293 293 291 292 297 299 300 299 300 301 299 298 298 297 296 296 296 296 295 294 293 293 291 288 284 281 277 275 273 272
316 292 286 289 296 301 302 307 312 311 306 304 302 299 299 296 296 298 303 304 303 304 304 304 303 302 300 298 297 297 296 295 294 293 291 289 287 284 282 278 275 272 270 268
336 312 301 296 300 306 310 313 317 318 316 310 307 304 302 300 300 303 305 305 305 305 305 304 304 303 301 300 299 298 297 296 295 293 291 289 286 283 280 278 275 272 269 267
9 323 314 309 307 309 314 315 320 318 316 315 312 305 302 302 302 305 307 308 308 307 306 305 305 304 303 302 300 299 297 296 294 292 290 288 285 283 280 277 274 271 268 266
352 345 335 330 320 324 322 321 322 323 320 318 314 311 310 310 309 309 310 310 310 310 309 308 308 307 306 305 303 301 299 297 295 293 291 289 286 283 280 277 274 272 269 266
347 347 343 339 335 333 327 325 324 322 319 318 317 318 317 316 315 315 314 314 314 314 313 313 311 310 309 308 307 306 304 302 300 297 295 292 289 287 284 280 276 273 269 266
340 342 342 341 338 334 328 325 322 320 319 320 321 321 320 319 318 318 317 317 317 317 316 315 315 314 314 313 312 311 309 307 305 303 300 298 295 292 289 285 281 277 271 267
334 338 341 339 337 333 328 323 319 319 320 321 320 320 320 321 320 320 320 321 321 321 320 319 319 318 317 316 314 312 311 309 308 306 304 301 298 295 291 287 283 279 274 269
331 332 334 333 331 328 324 320 319 321 323 322 322 322 323 323 323 323 323 324 324 324 323 322 321 319 317 316 314 312 311 310 308 306 305 302 299 295 292 288 283 279 275 272
327 327 328 327 327 326 324 323 324 326 326 324 325 325 326 326 327 326 326 326 326 325 324 322 320 318 317 315 314 312 311 310 308 306 304 301 298 295 291 287 283 279 275 272
323 324 325 326 327 327 326 326 327 329 327 325 326 327 329 330 330 329 328 328 327 326 324 322 320 318 317 316 315 313 312 310 308 305 303 301 297 294 290 286 281 277 273 270
321 321 322 323 325 325 323 325 328 330 329 329 330 331 332 332 332 330 329 329 328 326 324 323 321 320 319 318 316 314 312 310 308 306 304 301 297 293 289 285 280 276 270 267
319 317 318 321 325 328 328 328 330 332 332 332 331 332 333 334 334 332 330 330 328 327 326 325 323 322 321 319 318 316 315 312 309 307 304 300 297 294 289 284 279 274 269 265
314 316 319 323 327 329 330 330 332 333 334 333 333 333 334 334 335 333 331 330 329 329 328 327 326 325 323 322 320 319 316 314 311 308 304 300 297 294 289 283 278 273 268 263
312 316 319 324 327 329 330 331 332 333 334 334 334 335 335 335 335 335 334 333 332 332 331 330 329 327 326 324 323 321 319 316 314 310 306 302 298 294 290 284 277 271 266 261
312 316 320 323 325 327 328 331 332 332 334 335 336 336 337 337 336 337 336 336 335 334 333 332 331 330 329 327 326 324 322 320 317 313 310 306 301 295 291 286 278 269 263 260
312 316 319 322 324 326 328 330 332 332 333 335 336 336 337 338 337 338 337 337 336 335 335 334 334 333 332 331 330 329 327 325 322 318 315 311 306 300 293 287 279 269 262 257
312 315 319 323 325 325 327 329 331 332 334 335 336 337 338 339 339 339 339 338 338 337 337 337 337 336 336 335 335 334 333 331 328 325 321 318 312 304 297 289 280 270 263 256
310 314 318 321 323 324 326 328 331 333 334 335 336 338 339 340 340 340 340 340 339 339 339 339 340 339 339 338 338 338 337 336 334 332 327 324 319 311 301 291 283 275 264 255
310 314 317 320 322 324 327 329 332 334 334 335 337 339 340 341 341 341 341 341 341 341 342 342 342 342 343 342 342 341 341 339 338 336 334 330 326 320 310 299 289 277 261 250
309 314 317 320 323 326 328 330 331 332 333 335 338 339 340 341 342 342 342 342 342 343 343 344 345 345 345 346 346 346 345 345 343 341 339 338 335 330 322 311 297 277 256 243
Height
5855 5857 5856 5857 5858 5858 5858 5858 5858 5859 5859 5859 5859 5859 5860 5860 5860 5860 5860 5859 5858 5857 5855 5852 5849 5847 5844 5841 5838 5834 5830 5827 5824 5820 5816 5811 5807 5806 5807 5807 5808 5810 5811 5813
5854 5854 5855 5855 5855 5855 5855 5855 5855 5855 5855 5855 5855 5856 5856 5856 5856 5856 5855 5854 5853 5851 5849 5846 5843 5840 5837 5833 5830 5827 5823 5819 5817 5814 5810 5806 5803 5803 5803 5803 5803 5804 5806 5807
5852 5853 5853 5853 5853 5853 5853 5853 5853 5853 5852 5852 5852 5853 5853 5852 5852 5851 5850 5848 5846 5844 5841 5838 5835 5832 5829 5826 5823 5820 5816 5813 5811 5809 5806 5802 5800 5800 5799 5798 5798 5798 5800 5800
5851 5852 5852 5852 5852 5851 5851 5851 5851 5850 5850 5849 5849 5849 5849 5848 5846 5845 5844 5842 5839 5836 5833 5830 5827 5824 5822 5819 5816 5813 5809 5807 5805 5803 5801 5798 5797 5795 5795 5793 5793 5793 5794 5794
5850 5850 5851 5850 5850 5850 5850 5849 5849 5848 5847 5847 5846 5846 5846 5843 5841 5840 5837 5835 5832 5829 5826 5823 5820 5818 5815 5812 5809 5805 5802 5800 5797 5795 5794 5792 5791 5790 5788 5787 5786 5786 5787 5787
5850 5849 5849 5849 5849 5848 5848 5848 5847 5846 5845 5845 5844 5843 5842 5839 5837 5835 5832 5829 5826 5823 5820 5817 5814 5811 5808 5805 5802 5798 5795 5792 5790 5787 5785 5783 5781 5781 5780 5779 5778 5778 5777 5778
5849 5849 5849 5848 5848 5848 5847 5847 5846 5845 5843 5843 5842 5840 5839 5835 5833 5830 5828 5824 5821 5818 5815 5812 5808 5805 5801 5797 5794 5790 5786 5783 5780 5777 5774 5772 5770 5769 5768 5767 5767 5766 5766 5766
5849 5849 5848 5847 5847 5846 5845 5845 5844 5843 5842 5841 5839 5837 5836 5832 5829 5826 5823 5820 5817 5813 5809 5805 5801 5797 5793 5789 5784 5780 5776 5772 5768 5764 5761 5758 5756 5754 5753 5752 5751 5751 5751 5751
5848 5848 5847 5846 5845 5845 5844 5843 5842 5840 5838 5837 5836 5834 5831 5828 5825 5822 5819 5815 5811 5806 5802 5797 5793 5788 5783 5779 5774 5769 5764 5760 5755 5751 5747 5743 5740 5738 5736 5735 5734 5733 5733 5734
5848 5847 5846 5845 5844 5843 5842 5840 5839 5837 5835 5833 5832 5830 5827 5824 5820 5817 5813 5808 5804 5799 5794 5788 5783 5777 5772 5766 5761 5756 5750 5746 5741 5736 5731 5727 5723 5720 5717 5716 5714 5713 5713 5714
5847 5846 5846 5844 5842 5841 5840 5839 5836 5834 5832 5830 5827 5827 5822 5818 5814 5810 5806 5801 5795 5790 5784 5778 5772 5766 5760 5753 5746 5740 5734 5729 5724 5719 5714 5710 5705 5701 5698 5695 5693 5692 5691 5692
5846 5845 5844 5843 5841 5839 5838 5836 5834 5832 5829 5827 5824 5824 5817 5812 5808 5803 5798 5792 5786 5780 5774 5767 5760 5752 5745 5737 5730 5723 5716 5710 5704 5699 5695 5690 5685 5681 5678 5674 5672 5670 5669 5669
5845 5844 5843 5841 5841 5839 5836 5833 5831 5829 5826 5823 5820 5819 5811 5807 5801 5796 5790 5784 5777 5770 5762 5754 5746 5738 5730 5722 5714 5707 5699 5692 5685 5679 5674 5670 5665 5661 5658 5655 5653 5651 5649 5649
5844 5843 5842 5841 5839 5836 5833 5831 5828 5825 5822 5819 5815 5811 5806 5801 5795 5788 5782 5774 5767 5759 5750 5742 5733 5725 5717 5708 5699 5691 5682 5675 5667 5660 5655 5650 5645 5641 5638 5636 5634 5633 5632 5631
5842 5841 5839 5838 5836 5834 5831 5828 5825 5822 5818 5815 5810 5805 5800 5794 5787 5780 5773 5765 5757 5748 5739 5731 5722 5713 5704 5694 5685 5676 5667 5658 5650 5643 5636 5631 5626 5623 5620 5617 5616 5615 5615 5615
5840 5839 5837 5836 5833 5831 5828 5825 5822 5818 5814 5810 5805 5801 5795 5788 5780 5772 5764 5756 5748 5739 5730 5720 5711 5701 5691 5681 5671 5661 5652 5643 5634 5626 5619 5613 5608 5604 5601 5599 5598 5598 5598 5599
5839 5837 5835 5833 5831 5828 5825 5822 5818 5815 5810 5805 5800 5795 5788 5782 5774 5764 5755 5747 5738 5729 5719 5709 5699 5688 5678 5667 5656 5646 5636 5627 5617 5609 5601 5595 5590 5586 5583 5581 5580 5581 5581 5583
5838 5836 5833 5831 5829 5825 5824 5818 5814 5810 5806 5800 5794 5788 5781 5775 5767 5757 5747 5738 5728 5718 5708 5698 5687 5676 5664 5653 5641 5631 5621 5611 5601 5593 5585 5578 5572 5568 5565 5563 5563 5563 5564 5566
5835 5833 5831 5828 5824 5821 5818 5813 5809 5805 5801 5795 5789 5782 5775 5767 5761 5753 5741 5731 5719 5709 5697 5686 5675 5663 5651 5639 5627 5617 5606 5596 5586 5576 5568 5561 5555 5550 5547 5545 5545 5546 5547 5550
5833 5830 5828 5824 5820 5817 5814 5809 5804 5800 5795 5789 5782 5775 5767 5759 5752 5745 5733 5722 5710 5699 5687 5675 5664 5652 5639 5627 5615 5604 5592 5581 5570 5560 5552 5544 5538 5533 5530 5528 5528 5529 5531 5533
5829 5827 5824 5820 5817 5814 5810 5805 5800 5796 5790 5783 5775 5768 5761 5752 5742 5733 5722 5711 5699 5688 5677 5665 5653 5640 5628 5615 5603 5591 5578 5567 5555 5545 5536 5529 5522 5517 5514 5513 5512 5513 5515 5518
5825 5823 5820 5817 5813 5811 5805 5800 5796 5791 5784 5777 5770 5763 5755 5746 5736 5725 5714 5703 5691 5680 5668 5656 5644 5631 5618 5604 5591 5578 5566 5554 5542 5532 5523 5515 5509 5504 5501 5499 5499 5499 5501 5504
5822 5819 5816 5813 5811 5805 5800 5796 5791 5785 5779 5772 5765 5757 5749 5739 5729 5718 5707 5695 5684 5672 5660 5648 5635 5623 5609 5595 5581 5568 5556 5543 5532 5522 5513 5505 5498 5493 5490 5487 5487 5487 5489 5492
5818 5815 5812 5808 5805 5801 5797 5792 5786 5780 5774 5767 5759 5751 5742 5732 5722 5711 5700 5688 5677 5665 5653 5641 5628 5615 5602 5588 5574 5560 5547 5535 5524 5514 5505 5497 5490 5484 5480 5477 5476 5477 5478 5481
5813 5810 5807 5804 5801 5796 5792 5786 5781 5775 5768 5761 5753 5744 5735 5726 5716 5705 5694 5682 5671 5659 5647 5634 5621 5609 5595 5582 5569 5555 5541 5529 5518 5508 5499 5490 5482 5477 5472 5470 5468 5468 5470 5473
5808 5806 5803 5799 5795 5791 5787 5781 5776 5770 5764 5756 5748 5740 5730 5720 5710 5699 5688 5676 5665 5653 5641 5629 5617 5604 5591 5578 5564 5551 5537 5524 5513 5503 5494 5485 5478 5472 5467 5464 5463 5462 5464 5467